Zanesville, OH

5:42 AM EDT on May 25, 2018 (GMT -0400)
Zanesville Municipal

Weather History for KZZV - October, 2012

Change the Weather History Date:

Monday, October 15, 2012

  Actual Average Record
Temperature  
Mean Temperature 58 °F 53 °F  
Max Temperature 67 °F 65 °F 88 °F (1897)
Min Temperature 49 °F 42 °F 24 °F (1939)
Degree Days  
Heating Degree Days 7 12  
Month to date heating degree days 172 149  
Since 1 July heating degree days 310 258  
Cooling Degree Days 0 0  
Month to date cooling degree days 4 7  
Year to date cooling degree days 978 766  
Growing Degree Days 7 (Base 50)    
Moisture  
Dew Point 48 °F    
Average Humidity 82    
Maximum Humidity 93    
Minimum Humidity 71    
Precipitation  
Precipitation 0.09 in 0.08 in 1.38 in (1954)
Month to date precipitation 0.78 1.31  
Year to date precipitation 27.95 30.84  
Sea Level Pressure  
Sea Level Pressure 29.83 in    
Wind  
Wind Speed 6 mph (West)    
Max Wind Speed 24 mph    
Max Gust Speed 38 mph    
Visibility 8 miles    
Events Rain    
T = Trace of Precipitation, MM = Missing Value Source: NWS Daily Summary

Daily Weather History Graph

Daily Weather History Graph

Search for Another Location

Airport or City:

Astronomy

Oct. 15, 2012 Rise Set
Actual Time 7:38 AM EDT 6:47 PM EDT
Civil Twilight 7:11 AM EDT 7:14 PM EDT
Nautical Twilight 6:39 AM EDT 7:45 PM EDT
Astronomical Twilight 6:08 AM EDT 8:17 PM EDT
Moon 7:47 AM EDT (10/15) 6:46 PM EDT (10/15)
Length of Visible Light 12h 03m
Length of Day
11h 08m
New Moon, 0% of the Moon is Illuminated
Oct 15
New Moon
Oct 21
First Quarter
Oct 29
Full
Nov 6
Last Quarter
Nov 13
New

Hourly Weather History & Observations

Time (EDT) Temp. Dew Point Humidity Pressure Visibility Wind Dir Wind Speed Gust Speed Precip Events Conditions
12:53 AM 66.9 °F 57.0 °F 70% 29.68 in 10.0 mi SSW 11.5 mph - 0.00 in   Mostly Cloudy
1:53 AM 61.0 °F 54.0 °F 78% 29.70 in 6.0 mi West 13.8 mph 38.0 mph 0.02 in Rain Rain
2:00 AM 60.8 °F 53.6 °F 77% 29.72 in 10.0 mi West 12.7 mph 24.2 mph 0.00 in Rain Light Rain
2:53 AM 59.0 °F 55.0 °F 87% 29.73 in 10.0 mi West 10.4 mph - 0.00 in   Overcast
3:20 AM 59.0 °F 53.6 °F 82% 29.75 in 10.0 mi West 13.8 mph 19.6 mph N/A   Overcast
3:53 AM 57.9 °F 50.0 °F 75% 29.74 in 10.0 mi West 15.0 mph 26.5 mph N/A   Overcast
4:14 AM 57.2 °F 48.2 °F 72% 29.75 in 10.0 mi West 15.0 mph 25.3 mph N/A   Overcast
4:31 AM 55.4 °F 46.4 °F 72% 29.76 in 10.0 mi West 6.9 mph 16.1 mph N/A   Overcast
4:53 AM 55.9 °F 46.9 °F 72% 29.76 in 10.0 mi West 4.6 mph - N/A   Overcast
5:21 AM 53.6 °F 46.4 °F 77% 29.79 in 10.0 mi West 8.1 mph - N/A   Mostly Cloudy
5:40 AM 55.4 °F 46.4 °F 72% 29.79 in 10.0 mi West 4.6 mph - N/A   Mostly Cloudy
5:53 AM 55.0 °F 48.0 °F 77% 29.78 in 10.0 mi West 5.8 mph - N/A   Overcast
6:53 AM 53.1 °F 45.0 °F 74% 29.79 in 10.0 mi West 4.6 mph - N/A   Overcast
8:53 AM 53.1 °F 46.9 °F 80% 29.80 in 10.0 mi Calm Calm - N/A   Overcast
9:53 AM 54.0 °F 46.9 °F 77% 29.81 in 10.0 mi West 5.8 mph - N/A   Overcast
10:53 AM 55.0 °F 46.9 °F 74% 29.82 in 10.0 mi WSW 5.8 mph - N/A   Overcast
11:19 AM 53.6 °F 48.2 °F 82% 29.84 in 6.0 mi WSW 8.1 mph - 0.00 in Rain Light Rain
11:26 AM 53.6 °F 48.2 °F 82% 29.84 in 8.0 mi SW 5.8 mph - 0.00 in Rain Light Rain
11:53 AM 55.0 °F 48.9 °F 80% 29.83 in 10.0 mi WSW 6.9 mph - 0.00 in   Overcast
12:11 PM 55.4 °F 48.2 °F 77% 29.83 in 10.0 mi WSW 6.9 mph - N/A   Overcast
12:53 PM 54.0 °F 48.9 °F 83% 29.83 in 6.0 mi West 9.2 mph - 0.01 in Rain Light Rain
1:00 PM 53.6 °F 50.0 °F 88% 29.83 in 1.8 mi West 8.1 mph - 0.01 in Rain Rain
1:08 PM 51.8 °F 50.0 °F 94% 29.83 in 2.0 mi West 5.8 mph - 0.02 in Rain Light Rain
1:13 PM 53.6 °F 51.8 °F 94% 29.83 in 2.5 mi WSW 4.6 mph - 0.02 in Rain Light Rain
1:15 PM 53.6 °F 51.8 °F 94% 29.83 in 3.0 mi WSW 4.6 mph - 0.02 in Rain Light Rain
1:53 PM 52.0 °F 48.0 °F 86% 29.83 in 9.0 mi West 10.4 mph - 0.03 in   Overcast
2:53 PM 53.1 °F 46.9 °F 80% 29.84 in 10.0 mi West 11.5 mph - N/A   Overcast
3:53 PM 53.1 °F 46.0 °F 77% 29.85 in 10.0 mi WSW 10.4 mph - 0.00 in   Overcast
4:29 PM 50.0 °F 46.4 °F 87% 29.87 in 2.5 mi WNW 9.2 mph - 0.03 in Rain Rain
4:33 PM 50.0 °F 46.4 °F 87% 29.87 in 3.0 mi West 9.2 mph - 0.03 in Rain Light Rain
4:48 PM 51.8 °F 48.2 °F 88% 29.87 in 10.0 mi West 6.9 mph - 0.03 in Rain Light Rain
4:53 PM 51.1 °F 48.0 °F 89% 29.87 in 10.0 mi WSW 6.9 mph - 0.03 in   Overcast
5:32 PM 51.8 °F 46.4 °F 82% 29.88 in 10.0 mi West 4.6 mph - N/A   Overcast
5:49 PM 51.8 °F 46.4 °F 82% 29.88 in 10.0 mi WSW 4.6 mph - N/A   Overcast
5:53 PM 52.0 °F 46.9 °F 83% 29.88 in 10.0 mi WSW 6.9 mph - N/A   Overcast
6:53 PM 51.1 °F 46.0 °F 83% 29.89 in 7.0 mi West 5.8 mph - 0.00 in Rain Light Rain
7:53 PM 50.0 °F 46.9 °F 89% 29.91 in 10.0 mi Calm Calm - 0.00 in   Overcast
8:53 PM 50.0 °F 48.0 °F 93% 29.93 in 10.0 mi Calm Calm - N/A   Overcast
9:22 PM 50.0 °F 46.4 °F 87% 29.94 in 10.0 mi West 4.6 mph - N/A   Overcast
9:53 PM 50.0 °F 46.9 °F 89% 29.94 in 10.0 mi North 3.5 mph - N/A   Overcast
10:02 PM 50.0 °F 46.4 °F 87% 29.94 in 10.0 mi NW 6.9 mph - N/A   Overcast
10:53 PM 48.9 °F 45.0 °F 86% 29.94 in 10.0 mi Calm Calm - N/A   Overcast
11:53 PM 48.9 °F 44.1 °F 83% 29.94 in 10.0 mi WNW 6.9 mph - N/A   Overcast